LANDSAT 8

Last updated on Fri Jul 11 2025 00:02:28 GMT+0000 (Coordinated Universal Time)

1 39084U 13008A 25191.53156985 .00000225 00000+0 60108-4 0 9993 2 39084 98.2249 261.7241 0001377 88.9987 271.1369 14.57098826648142
UTC large
Height (km)
Speed (km/s)
/
Latitude / Longitude
Inclination (degrees)
Orbital Period (minutes)
Azimuth
Elevation
Range (km)
Doppler Factor

Next 0 passes for location: London (51.5072 / 0.1276)

Sorry there are no passes over London.